Cold rain mixed falling across most of the Chicago Metro area with temperatures just above freezing

At 11am most areas in the Chicago Metro area were reporting a cold rain with
temperatures hovering above freezing. Most roads are wet but some local slippery
spots remain on untreated and lesser traveled roads. Sidewalks may also be slippery.
Some sleet is occurring in the north portions of the metro area and that rain sleet
mixture transitions to snow as you approach the Wisconsin state line. Moderate snow was reported
in the Zion area about 10:20 am.

CHICAGO AREA WEATHER ROUNDUP
NATIONAL WEATHER SERVICE CHICAGO/ROMEOVILLE IL
1100 AM CST THU FEB 07 2013

NOTE: "FAIR" INDICATES FEW OR NO CLOUDS BELOW 12,000 FEET WITH NO
SIGNIFICANT WEATHER AND/OR OBSTRUCTIONS TO VISIBILITY.

* THESE STATIONS ARE NOT UNDER NWS QUALITY CONTROL. THEY ALSO MAY NOT
  REPORT WEATHER SUCH AS PRECIPITATION OR FOG.

ILZ005-006-012>014-019>023-071800-
NORTHEAST ILLINOIS

CITY           SKY/WX    TMP DP  RH WIND       PRES   REMARKS
OHARE          RAIN      33  32  96 SE7       29.99S FOG
MIDWAY         LGT RAIN  35  30  82 SE7       30.01S FOG
AURORA         LGT RAIN  33  32  96 SE5       29.99S FOG
LANSING*       CLOUDY    36  31  81 NE6       30.01S HAZE
WAUKEGAN       LGT SNOW  32  31  96 SE6       30.00S VSB 3/4
DUPAGE AIRPORT RAIN      34  32  92 SE6       29.99S FOG
WHEELING       LGT RAIN  34  32  92 SE7       30.03R FOG
KANKAKEE*      CLOUDY    39  33  80 SE12      29.99F HAZE
NORTHERLY IS   NOT AVBL
$$

WIZ051-052-058>065-066-070>072-071800-
SOUTHEAST WISCONSIN

CITY           SKY/WX    TMP DP  RH WIND       PRES   REMARKS
MILWAUKEE      LGT SNOW  33  32  96 S6        30.02R VSB 3/4
KENOSHA*       LGTSLEET  33  30  88 SE7       30.01S VSB 3/4
RACINE*        LGT SNOW  33  31  92 S10       30.03S VSB 1
WAUKESHA       LGT SNOW  30  30 100 SE3       30.00F
$$

INZ001>003-010>013-019-020-071800-
NORTHWEST INDIANA

CITY           SKY/WX    TMP DP  RH WIND       PRES   REMARKS
GARY           CLOUDY    37  30  75 SE7       30.02F FOG
VALPARAISO     PTSUNNY   37  30  75 SE9       30.02F HAZE
$$

 

Leave a Reply

Fill in your details below or click an icon to log in:

WordPress.com Logo

You are commenting using your WordPress.com account. Log Out / Change )

Twitter picture

You are commenting using your Twitter account. Log Out / Change )

Facebook photo

You are commenting using your Facebook account. Log Out / Change )

Google+ photo

You are commenting using your Google+ account. Log Out / Change )

Connecting to %s